EW8528 Weather Reports


time (UTC)temp
C
wind
direction
speed
KPH
gust
KPH
rain 1hr
cm
rain 24hr
cm
rain mn
cm
humidity
%
barometer
mb
20260505041547 13 71 0.0 9.7 0.00 0.00 0.00 65 1010.1
20260505040045 13 4 1.6 6.4 0.00 0.00 0.00 64 1010.2
20260505034551 13 350 0.0 9.7 0.00 0.00 0.00 63 1010.1
20260505033049 13 51 0.0 8.0 0.00 0.00 0.00 62 1010.1
20260505031557 13 0 1.6 8.0 0.00 0.00 0.00 60 1010.1
20260505030054 13 357 1.6 9.7 0.00 0.00 0.00 59 1010.1
20260505024550 14 83 0.0 9.7 0.00 0.00 0.00 57 1010.0
20260505023051 14 93 1.6 11.3 0.00 0.00 0.00 56 1010.2
20260505021543 15 8 1.6 14.5 0.00 0.00 0.00 54 1010.2
20260505020043 15 333 0.0 11.3 0.00 0.00 0.00 53 1010.1
20260505014601 15 63 1.6 12.9 0.00 0.00 0.00 52 1010.1
20260505013049 15 272 1.6 12.9 0.00 0.00 0.00 51 1009.8
20260505011552 16 79 4.8 16.1 0.00 0.00 0.00 50 1009.5
20260505010043 16 54 1.6 17.7 0.00 0.00 0.00 49 1009.5
20260505004551 16 10 3.2 16.1 0.00 0.00 0.00 47 1009.2
20260505003046 17 130 0.0 11.3 0.00 0.00 0.00 47 1008.9
20260505001547 17 243 4.8 16.1 0.00 0.00 0.00 46 1008.3
20260505000055 17 50 4.8 14.5 0.00 0.00 0.00 46 1008.0
20260504234547 17 86 1.6 11.3 0.00 0.00 0.00 45 1007.5
20260504233043 18 258 6.4 12.9 0.00 0.00 0.00 44 1007.6
20260504231542 18 296 4.8 16.1 0.00 0.00 0.00 43 1007.0
20260504230050 19 96 4.8 14.5 0.00 0.00 0.00 40 1006.7
20260504224550 20 136 4.8 16.1 0.00 0.00 0.00 38 1006.7
20260504223047 21 54 3.2 20.9 0.00 0.00 0.00 35 1006.4
20260504221544 21 101 1.6 8.0 0.00 0.00 0.00 32 1006.2
20260504220046 22 136 4.8 17.7 0.00 0.00 0.00 31 1006.1
20260504214552 22 309 1.6 17.7 0.00 0.00 0.00 31 1006.4
20260504213049 22 132 3.2 16.1 0.00 0.00 0.00 30 1006.2
20260504211554 22 0 3.2 17.7 0.00 0.00 0.00 30 1006.3
20260504210058 23 158 1.6 22.5 0.00 0.00 0.00 28 1006.2
20260504204606 22 215 4.8 17.7 0.00 0.00 0.00 29 1006.1
20260504203104 23 89 3.2 9.7 0.00 0.00 0.00 29 1006.1
20260504201551 22 82 6.4 16.1 0.00 0.00 0.00 28 1006.1
20260504200048 22 86 4.8 19.3 0.00 0.00 0.00 28 1006.2
20260504194552 22 101 4.8 16.1 0.00 0.00 0.00 28 1006.4
20260504193048 22 140 3.2 14.5 0.00 0.00 0.00 28 1006.3
20260504191550 22 328 3.2 17.7 0.00 0.00 0.00 28 1006.3
20260504190053 22 242 3.2 20.9 0.00 0.00 0.00 29 1006.4
20260504184547 22 5 6.4 24.1 0.00 0.00 0.00 28 1006.6
20260504183045 22 141 4.8 17.7 0.00 0.00 0.00 29 1006.8
20260504181551 21 135 4.8 19.3 0.00 0.00 0.00 30 1006.9
20260504180105 21 124 6.4 20.9 0.00 0.00 0.00 30 1007.2
20260504174551 21 330 6.4 27.4 0.00 0.00 0.00 32 1007.2
20260504173105 21 38 6.4 16.1 0.00 0.00 0.00 29 1007.2
20260504171556 20 106 4.8 24.1 0.00 0.00 0.00 33 1007.3
20260504081548 7 0 0.0 1.6 0.00 0.00 0.00 61 1010.1